GW6259 Weather Reports


time (UTC)temp
F
wind
direction
speed
knots
gust
knots
rain 1hr
in
rain 24hr
in
rain mn
in
humidity
%
barometer
mb
20260504081523 59 240 7.0 11.3 0.00 0.00 0.00 43 1024.2
20260504044522 52 296 1.7 2.6 0.00 0.00 0.00 57 1023.2
20260504043018 50 295 1.7 1.7 0.00 0.00 0.00 59 1023.0
20260504041520 50 286 0.9 1.7 0.00 0.00 0.00 66 1022.9
20260504040028 49 290 0.9 1.7 0.00 0.00 0.00 76 1022.8
20260504034528 49 298 0.9 2.6 0.00 0.00 0.00 86 1022.7
20260504033016 49 288 0.9 0.9 0.00 0.00 0.00 84 1022.6
20260504031519 49 281 0.9 1.7 0.00 0.00 0.00 85 1022.7
20260504030036 49 282 0.9 0.9 0.00 0.00 0.00 85 1022.7
20260504024528 49 274 0.9 0.9 0.00 0.00 0.00 84 1022.8
20260504023028 49 281 0.9 1.7 0.00 0.00 0.00 82 1023.0
20260504021517 49 275 0.9 1.7 0.00 0.00 0.00 80 1023.1
20260504020022 49 283 1.7 2.6 0.00 0.00 0.00 75 1023.1
20260504014523 49 268 1.7 3.5 0.00 0.00 0.00 71 1023.0
20260504013028 49 262 2.6 2.6 0.00 0.00 0.00 77 1023.0
20260504011527 49 277 1.7 1.7 0.00 0.00 0.00 68 1022.9
20260504010018 48 295 0.9 0.9 0.00 0.00 0.00 66 1023.0
20260504004524 47 295 1.7 2.6 0.00 0.00 0.00 72 1023.0
20260504003006 48 278 1.7 2.6 0.00 0.00 0.00 71 1023.1
20260504001512 48 279 1.7 1.7 0.00 0.00 0.00 68 1023.0
20260504000016 48 340 0.0 0.9 0.00 0.00 0.00 66 1023.0
20260503234530 47 356 0.9 1.7 0.00 0.00 0.00 71 1023.1
20260503233005 47 4 0.9 1.7 0.00 0.00 0.00 74 1023.2
20260503231508 48 270 0.0 0.0 0.00 0.00 0.00 73 1023.4
20260503230012 48 270 0.0 0.0 0.00 0.00 0.00 74 1023.5
20260503224519 49 270 0.0 1.7 0.00 0.00 0.00 70 1023.7
20260503223020 49 266 1.7 2.6 0.00 0.00 0.00 68 1023.8
20260503221525 49 311 0.0 3.5 0.00 0.00 0.00 61 1023.7
20260503220024 49 297 3.5 3.5 0.00 0.00 0.00 68 1023.7
20260503214510 50 350 0.0 0.9 0.00 0.00 0.00 57 1023.6
20260503213016 50 327 0.9 3.5 0.00 0.00 0.00 60 1023.5
20260503211522 50 335 0.9 2.6 0.00 0.00 0.00 63 1023.5
20260503210027 50 356 1.7 2.6 0.00 0.00 0.00 66 1023.6
20260503204509 49 288 0.9 1.7 0.00 0.00 0.00 72 1023.6
20260503203026 49 351 0.0 2.6 0.00 0.00 0.00 72 1023.3
20260503201520 49 348 0.9 2.6 0.00 0.00 0.00 72 1023.2
20260503200024 49 3 1.7 1.7 0.00 0.00 0.00 71 1023.3
20260503194526 49 2 0.0 1.7 0.00 0.00 0.00 71 1023.4
20260503193014 49 297 0.9 3.5 0.00 0.00 0.00 71 1023.5
20260503191521 50 265 1.7 2.6 0.00 0.00 0.00 71 1023.4
20260503190021 48 8 0.0 2.6 0.00 0.00 0.00 74 1023.2
20260503184526 49 10 0.9 2.6 0.00 0.00 0.00 74 1023.0
20260503183042 50 8 1.7 2.6 0.00 0.00 0.00 71 1023.0
20260503181512 51 41 1.7 2.6 0.00 0.00 0.00 67 1022.8
20260503180020 52 323 0.9 2.6 0.00 0.00 0.00 64 1022.8
20260503174521 53 311 1.7 4.3 0.00 0.00 0.00 63 1022.6
20260503173026 53 49 0.0 2.6 0.00 0.00 0.00 62 1022.6
20260503171528 54 264 1.7 4.3 0.00 0.00 0.00 63 1022.3